Location: Cherry Springs State Park
(41.6616°N, 77.8240°W)
Time: 19:37:37
(UTC-04:00)

Cosmos 1939 Rocket - Visible Passes

Search period start: 18 September 2018 00:00
Search period end: 28 September 2018 00:00
Orbit: 534 x 584 km, 97.5° (Epoch: 18 September)

Date Brightness Start Highest point End Pass type
(mag) Time Alt. Az. Time Alt. Az. Time Alt. Az.
18 Sep 3.0 20:50:35 16° S 20:53:49 80° W 20:57:59 10° NNW visible
19 Sep 2.9 20:49:18 18° S 20:52:22 83° W 20:56:31 10° NNW visible
20 Sep 2.9 20:48:00 19° S 20:50:55 86° W 20:55:03 10° NNW visible
21 Sep 2.9 20:46:43 21° SSE 20:49:27 89° W 20:53:36 10° NNW visible
22 Sep 2.8 20:45:26 23° SSE 20:48:00 88° ENE 20:52:08 10° NNW visible
23 Sep 2.8 20:44:09 25° SSE 20:46:32 85° ENE 20:50:40 10° N visible
24 Sep 2.8 20:42:52 27° SSE 20:45:05 82° ENE 20:49:13 10° N visible
25 Sep 2.8 20:41:36 29° SSE 20:43:38 79° ENE 20:47:45 10° N visible
26 Sep 2.8 20:40:19 32° SSE 20:42:11 76° ENE 20:46:17 10° N visible
27 Sep 2.8 20:39:03 34° SSE 20:40:43 74° ENE 20:44:48 10° N visible
